WBANNO,USDM_WEEK,LONGITUDE,LATITUDE,SMVWC_5_CM_MEAN,SMANOM_5_CM_MEAN,SMPERC_5_CM_30COUNTS,SMPERC_5_CM_70COUNTS,SMVWC_10_CM_MEAN,SMANOM_10_CM_MEAN,SMPERC_10_CM_30COUNTS,SMPERC_10_CM_70COUNTS,SMVWC_20_CM_MEAN,SMANOM_20_CM_MEAN,SMPERC_20_CM_30COUNTS,SMPERC_20_CM_70COUNTS,SMVWC_50_CM_MEAN,SMANOM_50_CM_MEAN,SMPERC_50_CM_30COUNTS,SMPERC_50_CM_70COUNTS,SMVWC_100_CM_MEAN,SMANOM_100_CM_MEAN,SMPERC_100_CM_30COUNTS,SMPERC_100_CM_70COUNTS,SMVWC_TOP_CM_MEAN,SMANOM_TOP_CM_MEAN,SMPERC_TOP_CM_30COUNTS,SMPERC_TOP_CM_70COUNTS,SMVWC_COLUMN_CM_MEAN,SMANOM_COLUMN_CM_MEAN,SMPERC_COLUMN_CM_30COUNTS,SMPERC_COLUMN_CM_70COUNTS
63869,20090501,-87.88,30.55,,,,,,,,,,,,,,,,,,,,,,,,,,,,
63869,20090502,-87.88,30.55,,,,,,,,,,,,,,,,,,,,,,,,,,,,
63869,20090503,-87.88,30.55,,,,,,,,,,,,,,,,,,,,,,,,,,,,
63869,20090504,-87.88,30.55,,,,,,,,,,,,,,,,,,,,,,,,,,,,
63869,20090505,-87.88,30.55,,,,,,,,,,,,,,,,,,,,,,,,,,,,
63869,20090506,-87.88,30.55,,,,,,,,,,,,,,,,,,,,,,,,,,,,
63869,20090507,-87.88,30.55,0.144,0.1,0.571,0.429,0.129,0.14,0.571,0.429,0.117,0.17,0.571,0.429,0.122,0.34,0.571,0.423,0.186,0.6,0,0.423,0.136,0.07,0.571,0.429,0.14,0.22,0.571,0.429
63869,20090508,-87.88,30.55,0.157,0.28,0.458,0.542,0.141,0.28,0.458,0.542,0.128,0.37,0.458,0.542,0.133,0.58,0.458,0.536,0.196,0.79,0,0.536,0.149,0.23,0.458,0.542,0.151,0.42,0.458,0.542
63869,20090509,-87.88,30.55,0.174,0.52,0.315,0.685,0.157,0.46,0.315,0.685,0.142,0.63,0.315,0.685,0.147,0.91,0.315,0.679,0.208,1.03,0,0.679,0.165,0.44,0.315,0.685,0.166,0.67,0.315,0.685
63869,20090510,-87.88,30.55,0.19,0.75,0.173,0.827,0.172,0.63,0.173,0.827,0.155,0.88,0.173,0.827,0.161,1.22,0.173,0.821,0.22,1.24,0,0.821,0.181,0.65,0.173,0.827,0.179,0.9,0.173,0.827
63869,20090511,-87.88,30.55,0.205,0.97,0.03,0.97,0.186,0.79,0.03,0.97,0.167,1.12,0.03,0.97,0.174,1.53,0.03,0.964,0.23,1.44,0,0.964,0.196,0.84,0.03,0.97,0.192,1.12,0.03,0.97
63869,20090512,-87.88,30.55,0.2,0.91,0,1,0.179,0.71,0,1,0.161,1.01,0,1,0.165,1.3,0,1,0.227,1.4,0,1,0.19,0.77,0,1,0.187,1.03,0,1
63869,20090513,-87.88,30.55,0.194,0.83,0,1,0.172,0.63,0,0.982,0.155,0.9,0,1,0.157,1.11,0,1,0.22,1.28,0,1,0.183,0.68,0,1,0.18,0.91,0,1
63869,20090514,-87.88,30.55,0.189,0.76,0,1,0.166,0.55,0,0.869,0.15,0.8,0,1,0.151,0.99,0,1,0.214,1.18,0,1,0.178,0.61,0,1,0.174,0.82,0,1
63869,20090515,-87.88,30.55,0.185,0.69,0,1,0.161,0.49,0,0.726,0.145,0.7,0,1,0.147,0.9,0,1,0.209,1.08,0,1,0.173,0.54,0,0.923,0.17,0.74,0,1
63869,20090516,-87.88,30.55,0.187,0.7,0,1,0.161,0.48,0,0.696,0.145,0.67,0,1,0.147,0.87,0,1,0.206,1.01,0,1,0.174,0.54,0,0.899,0.169,0.72,0,1
63869,20090517,-87.88,30.55,0.188,0.71,0,1,0.162,0.48,0,0.696,0.146,0.67,0,1,0.147,0.87,0,1,0.204,0.96,0,1,0.175,0.55,0,0.899,0.169,0.72,0,1
63869,20090518,-87.88,30.55,0.192,0.74,0,1,0.164,0.49,0,0.696,0.147,0.68,0,1,0.148,0.88,0,1,0.202,0.91,0,1,0.178,0.58,0,0.899,0.171,0.73,0,1
63869,20090519,-87.88,30.55,0.195,0.77,0,1,0.167,0.51,0,0.696,0.149,0.7,0,1,0.15,0.9,0,1,0.201,0.87,0,1,0.181,0.61,0,0.899,0.172,0.75,0,1
63869,20090520,-87.88,30.55,0.197,0.8,0,1,0.169,0.53,0,0.714,0.151,0.72,0,1,0.151,0.92,0,1,0.2,0.83,0,1,0.183,0.64,0,0.899,0.174,0.77,0,1
63869,20090521,-87.88,30.55,0.199,0.82,0,1,0.171,0.55,0,0.827,0.153,0.74,0,1,0.153,0.94,0,1,0.199,0.8,0,1,0.185,0.66,0,0.899,0.175,0.79,0,1
63869,20090522,-87.88,30.55,0.202,0.85,0,1,0.174,0.58,0,0.97,0.155,0.77,0,1,0.154,0.96,0,1,0.199,0.78,0,1,0.188,0.69,0,0.976,0.177,0.82,0,1
63869,20090523,-87.88,30.55,0.203,0.85,0,1,0.175,0.58,0,1,0.156,0.78,0,1,0.154,0.95,0,1,0.199,0.76,0,1,0.189,0.7,0,1,0.177,0.83,0,1
63869,20090524,-87.88,30.55,0.207,0.89,0,1,0.179,0.62,0,1,0.16,0.83,0,1,0.158,1.02,0,1,0.2,0.76,0,1,0.193,0.74,0,1,0.181,0.88,0,1
63869,20090525,-87.88,30.55,0.206,0.85,0,1,0.18,0.62,0,1,0.161,0.83,0,1,0.16,1.04,0,1,0.203,0.76,0,1,0.193,0.72,0,1,0.182,0.89,0,1
63869,20090526,-87.88,30.55,0.205,0.81,0,1,0.179,0.6,0,1,0.161,0.82,0,1,0.16,1.03,0,1,0.205,0.75,0,1,0.192,0.69,0,1,0.182,0.89,0,1
63869,20090527,-87.88,30.55,0.204,0.77,0,1,0.179,0.58,0,0.905,0.16,0.8,0,1,0.16,1.01,0,1,0.206,0.74,0,1,0.191,0.67,0,1,0.182,0.87,0,1
63869,20090528,-87.88,30.55,0.203,0.73,0,0.905,0.178,0.55,0,0.762,0.16,0.79,0,1,0.16,0.99,0,1,0.208,0.73,0,1,0.191,0.64,0,0.899,0.182,0.86,0,1
63869,20090529,-87.88,30.55,0.2,0.67,0,0.762,0.177,0.52,0,0.619,0.159,0.76,0,0.964,0.159,0.96,0,1,0.21,0.72,0,1,0.189,0.59,0,0.756,0.181,0.83,0,1
63869,20090530,-87.88,30.55,0.192,0.55,0,0.619,0.171,0.43,0,0.476,0.156,0.69,0,0.821,0.158,0.9,0,1,0.211,0.71,0,1,0.182,0.5,0,0.613,0.177,0.75,0,0.881
63869,20090531,-87.88,30.55,0.181,0.4,0,0.476,0.161,0.31,0,0.333,0.148,0.55,0,0.679,0.15,0.74,0,0.887,0.209,0.68,0,1,0.171,0.35,0,0.47,0.17,0.61,0,0.738
63869,20090601,-87.88,30.55,0.171,0.28,0,0.339,0.153,0.21,0,0.194,0.142,0.44,0,0.545,0.145,0.62,0,0.758,0.208,0.65,0,1,0.162,0.24,0,0.333,0.164,0.5,0,0.606
63869,20090602,-87.88,30.55,0.161,0.15,0,0.194,0.145,0.11,0,0.048,0.135,0.34,0,0.4,0.14,0.52,0,0.612,0.207,0.62,0,1,0.153,0.12,0,0.188,0.157,0.38,0,0.461
63869,20090603,-87.88,30.55,0.149,0.01,0.115,0.048,0.136,0.01,0.018,0,0.129,0.23,0,0.255,0.135,0.42,0,0.467,0.206,0.6,0,0.976,0.143,-0.01,0.109,0.042,0.151,0.28,0,0.315
63869,20090604,-87.88,30.55,0.146,-0.02,0.115,0.036,0.135,0,0.018,0.03,0.127,0.19,0,0.139,0.132,0.35,0,0.339,0.205,0.57,0,0.873,0.141,-0.03,0.109,0.036,0.149,0.24,0,0.206
63869,20090605,-87.88,30.55,0.153,0.04,0.115,0.182,0.141,0.07,0.018,0.176,0.131,0.25,0,0.176,0.133,0.37,0,0.339,0.205,0.55,0,0.745,0.147,0.04,0.109,0.182,0.153,0.28,0,0.206
63869,20090606,-87.88,30.55,0.159,0.11,0.115,0.327,0.146,0.13,0.018,0.321,0.134,0.3,0,0.321,0.135,0.41,0,0.339,0.207,0.55,0,0.745,0.153,0.1,0.109,0.327,0.156,0.33,0,0.327
63869,20090607,-87.88,30.55,0.164,0.17,0.115,0.467,0.151,0.18,0.018,0.388,0.138,0.35,0,0.467,0.137,0.44,0,0.455,0.21,0.57,0,0.745,0.158,0.16,0.109,0.473,0.16,0.38,0,0.473
63869,20090608,-87.88,30.55,0.169,0.22,0.113,0.464,0.155,0.23,0.018,0.381,0.141,0.4,0,0.589,0.139,0.48,0,0.589,0.214,0.59,0,0.75,0.162,0.22,0.107,0.482,0.164,0.42,0,0.607
63869,20090609,-87.88,30.55,0.175,0.27,0.113,0.464,0.16,0.28,0.018,0.381,0.144,0.44,0,0.601,0.141,0.51,0,0.732,0.217,0.62,0,0.75,0.167,0.27,0.107,0.482,0.167,0.47,0,0.661
63869,20090610,-87.88,30.55,0.179,0.32,0,0.464,0.164,0.33,0,0.381,0.147,0.49,0,0.601,0.142,0.54,0,0.762,0.22,0.64,0,0.774,0.172,0.33,0,0.482,0.17,0.52,0,0.661
63869,20090611,-87.88,30.55,0.174,0.26,0,0.429,0.159,0.28,0,0.351,0.145,0.45,0,0.571,0.142,0.54,0,0.744,0.223,0.67,0,0.875,0.166,0.27,0,0.446,0.169,0.48,0,0.625
63869,20090612,-87.88,30.55,0.159,0.09,0.054,0.286,0.147,0.15,0,0.208,0.137,0.33,0,0.429,0.138,0.46,0,0.601,0.226,0.69,0,1,0.153,0.11,0,0.304,0.161,0.37,0,0.482
63869,20090613,-87.88,30.55,0.145,-0.07,0.196,0.143,0.135,0.03,0,0.065,0.129,0.21,0,0.286,0.133,0.37,0,0.458,0.226,0.7,0,1,0.14,-0.04,0.101,0.161,0.154,0.26,0,0.339
63869,20090614,-87.88,30.55,0.132,-0.22,0.339,0.006,0.123,-0.08,0.107,0,0.121,0.09,0.024,0.143,0.128,0.28,0,0.315,0.225,0.69,0,1,0.127,-0.18,0.244,0.018,0.146,0.14,0,0.196
63869,20090615,-87.88,30.55,0.119,-0.37,0.482,0,0.112,-0.19,0.25,0,0.114,-0.03,0.167,0.012,0.123,0.19,0,0.173,0.224,0.67,0,1,0.116,-0.32,0.387,0,0.138,0.02,0,0.054
63869,20090616,-87.88,30.55,0.108,-0.5,0.625,0,0.101,-0.29,0.393,0,0.106,-0.16,0.31,0,0.118,0.11,0,0.03,0.221,0.64,0,0.982,0.104,-0.46,0.53,0,0.131,-0.09,0.101,0
63869,20090617,-87.88,30.55,0.098,-0.62,0.768,0,0.09,-0.4,0.536,0,0.098,-0.29,0.452,0,0.113,0.03,0,0,0.218,0.61,0,0.839,0.094,-0.58,0.673,0,0.123,-0.2,0.244,0
63869,20090618,-87.88,30.55,0.09,-0.72,0.911,0,0.079,-0.51,0.679,0,0.09,-0.42,0.595,0,0.108,-0.06,0.089,0,0.214,0.57,0,0.696,0.085,-0.69,0.815,0,0.116,-0.31,0.387,0
63869,20090619,-87.88,30.55,0.084,-0.8,1,0,0.07,-0.61,0.821,0,0.082,-0.56,0.738,0,0.103,-0.15,0.232,0,0.208,0.52,0,0.554,0.077,-0.79,0.958,0,0.109,-0.41,0.53,0
63869,20090620,-87.88,30.55,0.078,-0.87,1,0,0.061,-0.7,0.964,0,0.075,-0.7,0.881,0,0.097,-0.26,0.375,0,0.201,0.46,0,0.411,0.07,-0.88,1,0,0.103,-0.52,0.673,0
63869,20090621,-87.88,30.55,0.074,-0.93,1,0,0.054,-0.78,1,0,0.068,-0.84,1,0,0.091,-0.37,0.518,0,0.193,0.38,0,0.268,0.064,-0.96,1,0,0.096,-0.63,0.815,0
63869,20090622,-87.88,30.55,0.07,-0.98,1,0,0.048,-0.85,1,0,0.061,-0.98,1,0,0.084,-0.5,0.661,0,0.184,0.29,0,0.125,0.059,-1.03,1,0,0.09,-0.73,0.958,0
63869,20090623,-87.88,30.55,0.067,-1.01,1,0,0.043,-0.9,1,0,0.056,-1.11,1,0,0.078,-0.65,0.804,0,0.174,0.2,0,0,0.055,-1.07,1,0,0.084,-0.83,1,0
63869,20090624,-87.88,30.55,0.065,-1.02,1,0,0.039,-0.94,1,0,0.05,-1.22,1,0,0.07,-0.8,0.946,0,0.164,0.1,0,0,0.052,-1.1,1,0,0.078,-0.93,1,0
63869,20090625,-87.88,30.55,0.063,-1.03,1,0,0.037,-0.96,1,0,0.045,-1.33,1,0,0.063,-0.94,1,0,0.154,0,0.054,0,0.05,-1.11,1,0,0.072,-1.01,1,0
63869,20090626,-87.88,30.55,0.062,-1.04,1,0,0.035,-0.97,1,0,0.041,-1.42,1,0,0.056,-1.07,1,0,0.144,-0.09,0.185,0,0.048,-1.11,1,0,0.068,-1.09,1,0
63869,20090627,-87.88,30.55,0.06,-1.03,1,0,0.033,-0.97,1,0,0.037,-1.48,1,0,0.05,-1.18,1,0,0.136,-0.18,0.327,0,0.047,-1.1,1,0,0.063,-1.16,1,0
63869,20090628,-87.88,30.55,0.059,-1.02,1,0,0.032,-0.97,1,0,0.034,-1.53,1,0,0.045,-1.27,1,0,0.128,-0.25,0.47,0,0.046,-1.09,1,0,0.06,-1.21,1,0
63869,20090629,-87.88,30.55,0.058,-1.01,1,0,0.031,-0.96,1,0,0.032,-1.56,1,0,0.04,-1.34,1,0,0.121,-0.32,0.613,0,0.045,-1.07,1,0,0.056,-1.26,1,0
63869,20090630,-87.88,30.55,0.065,-0.91,0.917,0.012,0.042,-0.83,0.917,0.083,0.041,-1.34,0.917,0.083,0.041,-1.27,0.917,0,0.114,-0.38,0.756,0,0.053,-0.94,0.917,0.054,0.061,-1.16,0.917,0.024
63869,20090701,-87.88,30.55,0.075,-0.76,0.774,0.012,0.057,-0.65,0.774,0.131,0.055,-1.03,0.774,0.226,0.046,-1.13,0.774,0,0.108,-0.42,0.899,0,0.066,-0.76,0.774,0.054,0.068,-1,0.774,0.024
63869,20090702,-87.88,30.55,0.085,-0.62,0.631,0.012,0.07,-0.49,0.631,0.131,0.066,-0.78,0.631,0.286,0.051,-1.01,0.72,0,0.103,-0.45,0.988,0,0.077,-0.61,0.631,0.054,0.075,-0.86,0.631,0.024
63869,20090703,-87.88,30.55,0.097,-0.46,0.488,0.083,0.085,-0.31,0.488,0.202,0.079,-0.51,0.488,0.351,0.054,-0.89,0.72,0,0.099,-0.47,1,0,0.091,-0.43,0.488,0.125,0.083,-0.7,0.506,0.024
63869,20090704,-87.88,30.55,0.11,-0.28,0.345,0.131,0.101,-0.12,0.345,0.25,0.092,-0.22,0.345,0.494,0.059,-0.78,0.72,0,0.096,-0.49,1,0,0.105,-0.25,0.345,0.173,0.091,-0.52,0.363,0.024
63869,20090705,-87.88,30.55,0.121,-0.14,0.202,0.131,0.114,0.03,0.202,0.25,0.104,0.03,0.202,0.53,0.063,-0.66,0.72,0,0.093,-0.5,1,0,0.118,-0.1,0.202,0.173,0.099,-0.36,0.22,0.024
63869,20090706,-87.88,30.55,0.13,-0.03,0.06,0.131,0.125,0.15,0.06,0.25,0.114,0.23,0.06,0.53,0.067,-0.55,0.72,0,0.091,-0.5,1,0,0.128,0.03,0.06,0.173,0.106,-0.23,0.095,0.024
63869,20090707,-87.88,30.55,0.131,-0.01,0,0.119,0.125,0.13,0,0.167,0.112,0.18,0,0.446,0.066,-0.55,0.804,0,0.09,-0.49,1,0,0.128,0.03,0,0.119,0.105,-0.23,0.179,0
63869,20090708,-87.88,30.55,0.133,0.01,0,0.119,0.126,0.13,0,0.232,0.11,0.14,0,0.411,0.061,-0.61,0.946,0,0.09,-0.49,1,0,0.13,0.04,0,0.149,0.104,-0.24,0.196,0
63869,20090709,-87.88,30.55,0.136,0.03,0,0.119,0.128,0.14,0,0.238,0.111,0.15,0,0.411,0.059,-0.64,1,0,0.088,-0.49,1,0,0.132,0.05,0,0.149,0.104,-0.24,0.196,0
63869,20090710,-87.88,30.55,0.134,0,0,0.048,0.126,0.1,0,0.167,0.109,0.11,0,0.345,0.057,-0.66,1,0,0.087,-0.49,1,0,0.13,0.02,0,0.077,0.103,-0.27,0.179,0
63869,20090711,-87.88,30.55,0.128,-0.08,0,0,0.121,0.03,0,0.119,0.106,0.03,0,0.202,0.056,-0.68,1,0,0.086,-0.5,1,0,0.125,-0.06,0,0.03,0.1,-0.33,0.292,0
63869,20090712,-87.88,30.55,0.124,-0.14,0.095,0,0.119,-0.02,0,0.119,0.103,-0.05,0.042,0.167,0.055,-0.71,1,0,0.085,-0.5,1,0,0.121,-0.12,0.089,0.03,0.097,-0.38,0.435,0
63869,20090713,-87.88,30.55,0.121,-0.19,0.238,0,0.117,-0.07,0.119,0.119,0.1,-0.1,0.185,0.167,0.054,-0.73,1,0,0.084,-0.51,1,0,0.119,-0.16,0.232,0.03,0.095,-0.42,0.56,0
63869,20090714,-87.88,30.55,0.123,-0.18,0.289,0,0.119,-0.05,0.169,0.12,0.1,-0.12,0.253,0.169,0.053,-0.76,1,0,0.084,-0.52,1,0,0.121,-0.16,0.283,0.03,0.096,-0.43,0.554,0
63869,20090715,-87.88,30.55,0.121,-0.22,0.289,0,0.116,-0.1,0.169,0.006,0.097,-0.2,0.253,0.06,0.052,-0.78,1,0,0.083,-0.54,1,0,0.118,-0.2,0.283,0,0.094,-0.47,0.675,0
63869,20090716,-87.88,30.55,0.118,-0.27,0.289,0,0.113,-0.15,0.169,0,0.093,-0.29,0.271,0,0.052,-0.8,1,0,0.082,-0.55,1,0,0.115,-0.26,0.283,0,0.092,-0.53,0.819,0
63869,20090717,-87.88,30.55,0.115,-0.32,0.367,0,0.111,-0.19,0.193,0,0.09,-0.37,0.416,0,0.05,-0.83,1,0,0.082,-0.57,1,0,0.113,-0.31,0.373,0,0.09,-0.57,0.964,0
63869,20090718,-87.88,30.55,0.113,-0.35,0.5,0,0.109,-0.23,0.325,0,0.087,-0.43,0.56,0,0.049,-0.86,1,0,0.081,-0.58,1,0,0.111,-0.34,0.518,0,0.088,-0.61,0.994,0
63869,20090719,-87.88,30.55,0.112,-0.37,0.548,0,0.107,-0.26,0.47,0,0.085,-0.49,0.663,0,0.048,-0.88,1,0,0.08,-0.6,1,0,0.11,-0.37,0.572,0,0.087,-0.65,0.994,0
63869,20090720,-87.88,30.55,0.112,-0.39,0.548,0,0.106,-0.29,0.494,0,0.083,-0.54,0.663,0,0.047,-0.91,1,0,0.08,-0.62,1,0,0.109,-0.41,0.572,0,0.085,-0.68,0.994,0
63869,20090721,-87.88,30.55,0.106,-0.48,0.637,0,0.1,-0.38,0.583,0,0.079,-0.63,0.732,0,0.045,-0.94,1,0,0.079,-0.64,1,0,0.103,-0.49,0.661,0,0.082,-0.75,0.994,0
63869,20090722,-87.88,30.55,0.099,-0.59,0.78,0,0.092,-0.51,0.726,0,0.073,-0.77,0.875,0,0.044,-1,1,0,0.078,-0.65,1,0,0.096,-0.62,0.804,0,0.077,-0.86,1,0
63869,20090723,-87.88,30.55,0.095,-0.66,0.911,0.012,0.085,-0.62,0.863,0,0.068,-0.9,1,0,0.041,-1.08,1,0,0.077,-0.67,1,0,0.09,-0.72,0.935,0,0.073,-0.97,1,0
63869,20090724,-87.88,30.55,0.103,-0.56,0.833,0.06,0.089,-0.56,0.839,0,0.073,-0.81,0.863,0,0.039,-1.17,1,0,0.075,-0.69,1,0,0.096,-0.64,0.845,0,0.076,-0.94,0.982,0
63869,20090725,-87.88,30.55,0.109,-0.5,0.702,0.06,0.093,-0.5,0.708,0,0.078,-0.74,0.72,0,0.038,-1.25,1,0,0.074,-0.71,1,0,0.101,-0.59,0.702,0,0.078,-0.92,0.982,0
63869,20090726,-87.88,30.55,0.112,-0.47,0.643,0.06,0.097,-0.45,0.565,0,0.081,-0.68,0.601,0,0.038,-1.33,1,0,0.073,-0.73,1,0,0.105,-0.56,0.649,0,0.08,-0.92,0.982,0
63869,20090727,-87.88,30.55,0.115,-0.46,0.643,0.06,0.101,-0.41,0.5,0,0.085,-0.64,0.601,0,0.038,-1.42,1,0,0.071,-0.75,1,0,0.108,-0.53,0.649,0,0.082,-0.92,0.982,0
63869,20090728,-87.88,30.55,0.118,-0.45,0.643,0.06,0.104,-0.37,0.5,0,0.088,-0.61,0.601,0,0.038,-1.51,1,0,0.07,-0.78,1,0,0.111,-0.52,0.649,0,0.084,-0.92,0.982,0
63869,20090729,-87.88,30.55,0.123,-0.41,0.595,0.06,0.109,-0.32,0.464,0,0.092,-0.58,0.601,0,0.039,-1.58,1,0,0.069,-0.79,1,0,0.116,-0.47,0.649,0,0.086,-0.9,0.982,0
63869,20090730,-87.88,30.55,0.129,-0.34,0.518,0.048,0.116,-0.22,0.327,0,0.097,-0.51,0.601,0,0.041,-1.64,1,0,0.069,-0.81,1,0,0.122,-0.39,0.649,0,0.09,-0.85,0.982,0
63869,20090731,-87.88,30.55,0.125,-0.41,0.536,0.018,0.114,-0.25,0.327,0.018,0.093,-0.62,0.726,0,0.042,-1.68,1,0,0.068,-0.83,1,0,0.119,-0.44,0.679,0.018,0.088,-0.91,0.982,0
63869,20090801,-87.88,30.55,0.134,-0.27,0.536,0.161,0.124,-0.09,0.327,0.161,0.1,-0.44,0.726,0.143,0.049,-1.56,0.923,0,0.068,-0.84,1,0,0.129,-0.28,0.679,0.161,0.095,-0.79,0.839,0.095
63869,20090802,-87.88,30.55,0.144,-0.1,0.452,0.304,0.136,0.09,0.327,0.304,0.109,-0.2,0.702,0.286,0.06,-1.32,0.78,0,0.067,-0.87,1,0,0.14,-0.1,0.589,0.304,0.103,-0.64,0.696,0.19
63869,20090803,-87.88,30.55,0.155,0.09,0.31,0.446,0.147,0.27,0.25,0.446,0.119,0.05,0.56,0.429,0.071,-1.06,0.637,0,0.067,-0.89,1,0,0.151,0.09,0.446,0.446,0.112,-0.47,0.554,0.214
63869,20090804,-87.88,30.55,0.166,0.27,0.167,0.589,0.158,0.44,0.107,0.589,0.128,0.3,0.417,0.571,0.082,-0.81,0.494,0,0.067,-0.93,1,0,0.162,0.27,0.304,0.589,0.12,-0.31,0.411,0.214
63869,20090805,-87.88,30.55,0.175,0.41,0.071,0.679,0.168,0.58,0,0.732,0.136,0.52,0.274,0.714,0.091,-0.58,0.351,0,0.067,-0.97,1,0,0.171,0.42,0.161,0.726,0.127,-0.17,0.268,0.214
63869,20090806,-87.88,30.55,0.18,0.49,0.018,0.679,0.174,0.68,0,0.798,0.143,0.71,0.131,0.857,0.1,-0.35,0.208,0,0.067,-1.01,1,0,0.177,0.52,0.03,0.756,0.133,-0.06,0.125,0.214
63869,20090807,-87.88,30.55,0.183,0.54,0,0.661,0.178,0.75,0,0.792,0.148,0.85,0,0.964,0.108,-0.14,0.065,0,0.067,-1.06,1,0,0.181,0.59,0,0.738,0.137,0.02,0,0.214
63869,20090808,-87.88,30.55,0.176,0.42,0,0.518,0.17,0.61,0,0.649,0.143,0.71,0,0.845,0.109,-0.13,0.089,0,0.067,-1.1,1,0,0.173,0.46,0,0.595,0.133,-0.06,0.006,0.119
63869,20090809,-87.88,30.55,0.169,0.3,0,0.375,0.161,0.48,0,0.506,0.137,0.54,0,0.702,0.105,-0.24,0.232,0,0.068,-1.14,1,0,0.165,0.33,0,0.452,0.128,-0.17,0.107,0.024
63869,20090810,-87.88,30.55,0.162,0.18,0,0.232,0.153,0.35,0,0.363,0.131,0.37,0,0.56,0.101,-0.35,0.375,0,0.069,-1.17,1,0,0.158,0.21,0,0.31,0.123,-0.28,0.25,0
63869,20090811,-87.88,30.55,0.156,0.08,0,0.089,0.146,0.24,0,0.22,0.126,0.23,0,0.417,0.097,-0.47,0.518,0,0.07,-1.18,1,0,0.151,0.1,0,0.167,0.119,-0.37,0.393,0
63869,20090812,-87.88,30.55,0.151,-0.01,0,0,0.14,0.14,0,0.077,0.121,0.1,0,0.274,0.093,-0.58,0.661,0,0.07,-1.18,1,0,0.145,0,0,0.03,0.115,-0.46,0.536,0
63869,20090813,-87.88,30.55,0.145,-0.1,0,0,0.134,0.04,0,0.012,0.116,-0.02,0.012,0.131,0.089,-0.7,0.804,0,0.071,-1.18,1,0,0.14,-0.1,0.03,0,0.111,-0.55,0.679,0
63869,20090814,-87.88,30.55,0.139,-0.19,0.065,0,0.128,-0.06,0.089,0,0.111,-0.15,0.143,0.024,0.085,-0.81,0.946,0,0.071,-1.17,1,0,0.134,-0.19,0.161,0,0.107,-0.64,0.821,0
63869,20090815,-87.88,30.55,0.135,-0.27,0.208,0,0.122,-0.16,0.232,0,0.107,-0.26,0.286,0,0.081,-0.93,1,0,0.072,-1.16,1,0,0.128,-0.29,0.304,0,0.103,-0.72,0.958,0
63869,20090816,-87.88,30.55,0.13,-0.35,0.351,0,0.117,-0.25,0.375,0,0.102,-0.38,0.429,0,0.077,-1.05,1,0,0.072,-1.14,1,0,0.123,-0.37,0.446,0,0.1,-0.8,1,0
63869,20090817,-87.88,30.55,0.125,-0.42,0.494,0,0.111,-0.35,0.518,0,0.098,-0.51,0.571,0,0.073,-1.17,1,0,0.072,-1.12,1,0,0.118,-0.46,0.589,0,0.096,-0.88,1,0
63869,20090818,-87.88,30.55,0.121,-0.49,0.637,0,0.107,-0.44,0.661,0,0.093,-0.63,0.714,0,0.07,-1.28,1,0,0.072,-1.1,1,0,0.114,-0.54,0.732,0,0.093,-0.95,1,0
63869,20090819,-87.88,30.55,0.119,-0.53,0.78,0,0.103,-0.51,0.804,0,0.09,-0.72,0.857,0,0.067,-1.38,1,0,0.072,-1.08,1,0,0.111,-0.59,0.875,0,0.09,-1,1,0
63869,20090820,-87.88,30.55,0.127,-0.39,0.798,0.125,0.112,-0.35,0.821,0.125,0.095,-0.59,0.869,0.119,0.065,-1.45,1,0,0.072,-1.07,1,0,0.119,-0.44,0.863,0.125,0.094,-0.91,0.875,0
63869,20090821,-87.88,30.55,0.135,-0.26,0.732,0.268,0.121,-0.2,0.732,0.268,0.101,-0.42,0.738,0.262,0.065,-1.44,1,0,0.072,-1.05,1,0,0.128,-0.29,0.732,0.268,0.099,-0.8,0.732,0
63869,20090822,-87.88,30.55,0.146,-0.07,0.589,0.411,0.134,0.04,0.589,0.411,0.112,-0.15,0.595,0.405,0.074,-1.15,0.935,0.065,0.072,-1.04,1,0,0.14,-0.08,0.589,0.411,0.108,-0.59,0.589,0.065
63869,20090823,-87.88,30.55,0.157,0.11,0.446,0.554,0.146,0.27,0.446,0.554,0.125,0.17,0.452,0.548,0.09,-0.69,0.792,0.208,0.072,-1.04,1,0,0.152,0.13,0.446,0.554,0.118,-0.36,0.446,0.208
63869,20090824,-87.88,30.55,0.167,0.27,0.304,0.696,0.157,0.47,0.304,0.696,0.135,0.42,0.31,0.69,0.102,-0.34,0.649,0.351,0.072,-1.03,1,0,0.162,0.31,0.304,0.696,0.127,-0.17,0.304,0.232
63869,20090825,-87.88,30.55,0.175,0.41,0.161,0.75,0.167,0.65,0.161,0.839,0.144,0.66,0.167,0.833,0.112,-0.03,0.506,0.494,0.074,-1.02,1,0,0.171,0.48,0.161,0.839,0.134,0,0.161,0.232
63869,20090826,-87.88,30.55,0.183,0.53,0.018,0.75,0.175,0.81,0.018,0.982,0.152,0.87,0.024,0.976,0.122,0.25,0.363,0.631,0.075,-1,1,0,0.179,0.62,0.018,0.881,0.142,0.16,0.018,0.232
63869,20090827,-87.88,30.55,0.179,0.47,0,0.625,0.171,0.75,0,0.929,0.152,0.86,0,1,0.13,0.51,0.22,0.631,0.078,-0.98,1,0,0.175,0.56,0,0.756,0.142,0.17,0,0.232
63869,20090828,-87.88,30.55,0.177,0.44,0,0.554,0.169,0.72,0,0.923,0.151,0.84,0,1,0.136,0.69,0.077,0.631,0.08,-0.95,1,0,0.173,0.53,0,0.72,0.143,0.18,0,0.232
63869,20090829,-87.88,30.55,0.173,0.37,0,0.435,0.163,0.63,0,0.923,0.147,0.72,0,1,0.133,0.61,0,0.565,0.083,-0.91,1,0,0.168,0.46,0,0.72,0.14,0.13,0,0.167
63869,20090830,-87.88,30.55,0.169,0.32,0,0.292,0.158,0.56,0,0.923,0.141,0.59,0,1,0.124,0.37,0,0.423,0.087,-0.85,1,0,0.163,0.4,0,0.679,0.136,0.05,0,0.024
63869,20090831,-87.88,30.55,0.168,0.31,0,0.25,0.156,0.54,0,0.917,0.14,0.55,0,0.994,0.122,0.34,0,0.369,0.09,-0.8,1,0,0.162,0.39,0,0.655,0.135,0.05,0,0.06
63869,20090901,-87.88,30.55,0.167,0.3,0,0.226,0.155,0.54,0,0.917,0.138,0.53,0,0.994,0.124,0.39,0,0.369,0.093,-0.75,1,0,0.161,0.38,0,0.583,0.135,0.06,0,0.06
63869,20090902,-87.88,30.55,0.166,0.29,0,0.226,0.153,0.52,0,0.863,0.137,0.5,0,0.911,0.126,0.45,0,0.375,0.096,-0.71,1,0,0.16,0.37,0,0.542,0.136,0.07,0,0.06
63869,20090903,-87.88,30.55,0.171,0.35,0,0.315,0.16,0.65,0,0.887,0.141,0.6,0,0.857,0.135,0.73,0,0.518,0.111,-0.51,0.917,0.083,0.165,0.46,0,0.631,0.144,0.24,0,0.149
63869,20090904,-87.88,30.55,0.172,0.37,0,0.387,0.163,0.71,0,0.893,0.142,0.64,0,0.857,0.143,0.94,0,0.661,0.133,-0.26,0.774,0.226,0.167,0.5,0,0.667,0.15,0.38,0,0.292
63869,20090905,-87.88,30.55,0.172,0.37,0,0.387,0.163,0.71,0,0.893,0.142,0.64,0,0.857,0.147,1.08,0,0.804,0.152,-0.04,0.631,0.369,0.167,0.5,0,0.655,0.155,0.47,0,0.435
63869,20090906,-87.88,30.55,0.171,0.37,0,0.387,0.162,0.71,0,0.893,0.14,0.63,0,0.81,0.152,1.2,0,0.946,0.17,0.18,0.488,0.512,0.167,0.49,0,0.56,0.159,0.55,0,0.577
63869,20090907,-87.88,30.55,0.17,0.34,0,0.298,0.16,0.68,0,0.875,0.138,0.58,0,0.708,0.152,1.22,0,1,0.188,0.37,0.345,0.655,0.165,0.47,0,0.464,0.162,0.6,0,0.661
63869,20090908,-87.88,30.55,0.174,0.41,0,0.411,0.164,0.75,0,0.875,0.139,0.62,0,0.708,0.154,1.26,0,1,0.205,0.57,0.202,0.798,0.169,0.53,0,0.536,0.167,0.71,0,0.804
63869,20090909,-87.88,30.55,0.177,0.46,0,0.554,0.166,0.81,0,0.929,0.14,0.67,0,0.792,0.157,1.34,0,1,0.224,0.77,0.06,0.94,0.172,0.59,0,0.679,0.173,0.82,0,0.946
63869,20090910,-87.88,30.55,0.174,0.43,0,0.583,0.161,0.71,0,0.976,0.136,0.59,0,0.845,0.151,1.2,0,1,0.231,0.83,0,1,0.167,0.53,0,0.732,0.171,0.78,0,1
63869,20090911,-87.88,30.55,0.172,0.41,0,0.458,0.157,0.66,0,0.94,0.133,0.54,0,0.845,0.148,1.11,0,1,0.23,0.81,0,1,0.165,0.49,0,0.637,0.168,0.74,0,1
63869,20090912,-87.88,30.55,0.171,0.4,0,0.446,0.156,0.63,0,0.821,0.132,0.52,0,0.762,0.146,1.06,0,1,0.231,0.82,0,1,0.164,0.48,0,0.518,0.167,0.72,0,1
63869,20090913,-87.88,30.55,0.178,0.51,0,0.589,0.16,0.72,0,0.821,0.136,0.62,0,0.81,0.149,1.15,0,1,0.233,0.83,0,1,0.169,0.57,0,0.655,0.171,0.8,0,1
63869,20090914,-87.88,30.55,0.182,0.57,0,0.72,0.163,0.77,0,0.845,0.138,0.68,0,0.917,0.152,1.23,0,1,0.237,0.87,0,1,0.173,0.63,0,0.774,0.174,0.86,0,1
63869,20090915,-87.88,30.55,0.185,0.61,0,0.72,0.164,0.79,0,0.845,0.139,0.72,0,0.917,0.154,1.28,0,1,0.242,0.91,0,1,0.175,0.67,0,0.774,0.177,0.91,0,1
63869,20090916,-87.88,30.55,0.186,0.64,0,0.72,0.165,0.8,0,0.845,0.14,0.73,0,0.917,0.154,1.29,0,1,0.244,0.94,0,1,0.175,0.69,0,0.774,0.178,0.92,0,1
63869,20090917,-87.88,30.55,0.187,0.67,0,0.744,0.165,0.82,0,0.845,0.14,0.74,0,0.917,0.154,1.29,0,1,0.246,0.96,0,1,0.176,0.71,0,0.774,0.178,0.94,0,1
63869,20090918,-87.88,30.55,0.188,0.69,0,0.863,0.165,0.83,0,0.881,0.14,0.75,0,0.917,0.154,1.3,0,1,0.247,0.97,0,1,0.176,0.73,0,0.869,0.179,0.95,0,1
63869,20090919,-87.88,30.55,0.188,0.7,0,0.917,0.165,0.84,0,1,0.14,0.75,0,1,0.154,1.31,0,1,0.247,0.98,0,1,0.177,0.74,0,1,0.179,0.95,0,1
63869,20090920,-87.88,30.55,0.181,0.61,0,0.827,0.159,0.76,0,1,0.135,0.65,0,1,0.15,1.2,0,1,0.246,0.98,0,1,0.17,0.66,0,1,0.174,0.88,0,1
63869,20090921,-87.88,30.55,0.177,0.56,0,0.69,0.155,0.7,0,1,0.132,0.58,0,0.875,0.146,1.11,0,1,0.244,0.96,0,1,0.166,0.6,0,0.994,0.171,0.83,0,1
63869,20090922,-87.88,30.55,0.169,0.46,0,0.548,0.149,0.6,0,1,0.126,0.47,0,0.75,0.14,0.97,0,1,0.24,0.93,0,1,0.159,0.5,0,0.994,0.165,0.74,0,1
63869,20090923,-87.88,30.55,0.166,0.44,0,0.506,0.145,0.55,0,1,0.123,0.4,0,0.702,0.135,0.87,0,1,0.235,0.9,0,1,0.156,0.47,0,0.994,0.161,0.69,0,1
63869,20090924,-87.88,30.55,0.165,0.42,0,0.506,0.143,0.52,0,1,0.121,0.36,0,0.702,0.132,0.8,0,1,0.232,0.87,0,1,0.154,0.45,0,0.994,0.158,0.67,0,1
63869,20090925,-87.88,30.55,0.163,0.41,0,0.423,0.141,0.51,0,1,0.119,0.33,0,0.661,0.129,0.75,0,1,0.229,0.84,0,1,0.152,0.43,0,0.994,0.156,0.65,0,1
63869,20090926,-87.88,30.55,0.161,0.4,0,0.357,0.139,0.49,0,0.976,0.118,0.31,0,0.518,0.127,0.72,0,1,0.226,0.82,0,1,0.15,0.42,0,0.893,0.154,0.64,0,1
63869,20090927,-87.88,30.55,0.159,0.38,0,0.304,0.137,0.46,0,0.833,0.116,0.28,0,0.375,0.125,0.68,0,1,0.223,0.8,0,1,0.148,0.4,0,0.75,0.152,0.62,0,1
63869,20090928,-87.88,30.55,0.156,0.36,0,0.298,0.135,0.44,0,0.69,0.115,0.26,0,0.357,0.124,0.64,0,1,0.221,0.79,0,1,0.146,0.37,0,0.613,0.15,0.59,0,1
63869,20090929,-87.88,30.55,0.152,0.33,0,0.298,0.133,0.4,0,0.548,0.113,0.22,0,0.339,0.122,0.6,0,0.952,0.219,0.77,0,1,0.143,0.33,0,0.47,0.148,0.55,0,0.97